CPA022 YSSY-VHHH

Flight info

Callsign CPA022
Flight time N/A
Altitude 28000
Route RIC H530 AGRAX/N0506F300 H530 SURVO R340 AMN A461 BONDA/N0506F320 A461 ZAM A583 SABNO V542 BETTY
Aircraft B77L/H-SDE1E2E3FGHIJ2J3J4J5M1RWXY/LB1D1

Departure

Time 2026-05-07 20:57
Airport Sydney Kingsford Smith International Airport (YSSY)

Arrival

Time N/A
Airport Hong Kong International Airport (VHHH)
Time Latitude Longitude Altitude Speed Heading
2026-05-07 20:29 -33.93045 151.16768 25 ft 0 kts 257°
2026-05-07 20:44 -33.93040 151.16797 30 ft 4 kts 257°
2026-05-07 20:44 -33.93034 151.16828 30 ft 4 kts 253°
2026-05-07 20:44 -33.93025 151.16858 31 ft 4 kts 241°
2026-05-07 20:45 -33.93009 151.16884 31 ft 4 kts 218°
2026-05-07 20:45 -33.92988 151.16895 30 ft 2 kts 173°
2026-05-07 20:45 -33.92986 151.16895 30 ft 0 kts 172°
2026-05-07 20:47 -33.93015 151.16900 31 ft 9 kts 172°
2026-05-07 20:47 -33.93114 151.16921 28 ft 20 kts 168°
2026-05-07 20:47 -33.93249 151.16967 28 ft 17 kts 150°
2026-05-07 20:47 -33.93341 151.17055 28 ft 16 kts 152°
2026-05-07 20:48 -33.93448 151.17090 27 ft 21 kts 169°
2026-05-07 20:48 -33.93543 151.17113 27 ft 14 kts 168°
2026-05-07 20:48 -33.93651 151.17139 27 ft 18 kts 168°
2026-05-07 20:48 -33.93788 151.17175 21 ft 23 kts 167°
2026-05-07 20:49 -33.93942 151.17210 23 ft 18 kts 190°
2026-05-07 20:49 -33.94004 151.17084 26 ft 19 kts 253°
2026-05-07 20:49 -33.94043 151.16924 29 ft 21 kts 254°
2026-05-07 20:49 -33.94084 151.16748 30 ft 23 kts 254°
2026-05-07 20:50 -33.94129 151.16556 29 ft 25 kts 254°
2026-05-07 20:50 -33.94153 151.16452 29 ft 13 kts 254°
2026-05-07 20:50 -33.94195 151.16341 30 ft 16 kts 222°
2026-05-07 20:50 -33.94262 151.16332 29 ft 0 kts 163°
2026-05-07 20:55 -33.94263 151.16332 29 ft 1 kts 163°
2026-05-07 20:55 -33.94286 151.16342 29 ft 6 kts 161°
2026-05-07 20:55 -33.94336 151.16366 28 ft 9 kts 146°
2026-05-07 20:55 -33.94355 151.16440 28 ft 7 kts 81°
2026-05-07 20:56 -33.94354 151.16443 29 ft 0 kts 78°
2026-05-07 20:56 -33.94348 151.16474 27 ft 18 kts 75°
2026-05-07 20:56 -33.94288 151.16731 28 ft 79 kts 74°
2026-05-07 20:57 -33.94058 151.17700 27 ft 160 kts 74°
2026-05-07 20:57 -33.93698 151.19226 142 ft 208 kts 73°
2026-05-07 20:57 -33.93297 151.20948 700 ft 227 kts 71°
2026-05-07 20:57 -33.92837 151.22904 1265 ft 246 kts 74°
2026-05-07 20:58 -33.92387 151.24916 2117 ft 257 kts 76°
2026-05-07 20:58 -33.91859 151.27081 2580 ft 276 kts 75°
2026-05-07 20:58 -33.91303 151.29303 3497 ft 278 kts 75°
2026-05-07 20:58 -33.90444 151.31398 4346 ft 285 kts 51°
2026-05-07 20:59 -33.88887 151.32870 5241 ft 290 kts 24°
2026-05-07 20:59 -33.86924 151.33397 6063 ft 293 kts 355°
2026-05-07 20:59 -33.84966 151.32830 6827 ft 290 kts 326°
2026-05-07 20:59 -33.83460 151.31309 7649 ft 280 kts 300°
2026-05-07 21:00 -33.82483 151.29335 8437 ft 275 kts 291°
2026-05-07 21:00 -33.81590 151.27292 9293 ft 277 kts 290°
2026-05-07 21:00 -33.80703 151.25243 10244 ft 276 kts 290°
2026-05-07 21:00 -33.79805 151.23158 10849 ft 289 kts 289°
2026-05-07 21:01 -33.78841 151.20903 11051 ft 317 kts 290°
2026-05-07 21:01 -33.77787 151.18446 11275 ft 344 kts 291°
2026-05-07 21:01 -33.76646 151.15828 11817 ft 359 kts 291°
2026-05-07 21:01 -33.75463 151.13148 12704 ft 366 kts 291°
2026-05-07 21:02 -33.74263 151.10440 13731 ft 368 kts 291°
2026-05-07 21:02 -33.73056 151.07716 14698 ft 370 kts 291°
2026-05-07 21:02 -33.71837 151.04984 15624 ft 373 kts 292°
2026-05-07 21:02 -33.70507 151.02282 16502 ft 378 kts 295°
2026-05-07 21:03 -33.69157 150.99557 17349 ft 381 kts 294°
2026-05-07 21:03 -33.67858 150.96772 18249 ft 383 kts 292°
2026-05-07 21:03 -33.66605 150.93937 19037 ft 385 kts 291°
2026-05-07 21:03 -33.65377 150.91061 19758 ft 388 kts 290°
2026-05-07 21:04 -33.64155 150.88156 20458 ft 392 kts 290°
2026-05-07 21:04 -33.62919 150.85217 21180 ft 396 kts 290°
2026-05-07 21:04 -33.61682 150.82286 21878 ft 400 kts 290°
2026-05-07 21:04 -33.60265 150.79373 22571 ft 410 kts 296°
2026-05-07 21:05 -33.58551 150.76593 23255 ft 419 kts 301°
2026-05-07 21:05 -33.56607 150.73933 23850 ft 430 kts 307°
2026-05-07 21:05 -33.54437 150.71415 24377 ft 436 kts 308°
2026-05-07 21:05 -33.52230 150.68909 24971 ft 438 kts 309°
2026-05-07 21:06 -33.50015 150.66395 25670 ft 438 kts 309°
2026-05-07 21:06 -33.47814 150.63881 26353 ft 438 kts 308°
2026-05-07 21:06 -33.45610 150.61347 27003 ft 439 kts 308°
2026-05-07 21:06 -33.43405 150.58806 27620 ft 441 kts 308°
2026-05-07 21:07 -33.41190 150.56255 28225 ft 443 kts 308°
2026-05-07 21:07 -33.38966 150.53695 28800 ft 445 kts 308°
2026-05-07 21:07 -33.36731 150.51124 29374 ft 446 kts 308°
2026-05-07 21:07 -33.34490 150.48544 29931 ft 448 kts 308°
2026-05-07 21:08 -33.32234 150.45950 30204 ft 452 kts 309°
2026-05-07 21:08 -33.27683 150.40719 30175 ft 452 kts 309°
2026-05-07 21:09 -33.23161 150.35535 30184 ft 450 kts 309°
2026-05-07 21:09 -33.18638 150.30354 30206 ft 451 kts 309°
2026-05-07 21:10 -33.14102 150.25164 30236 ft 453 kts 309°
2026-05-07 21:10 -33.09538 150.19948 30242 ft 454 kts 309°
2026-05-07 21:11 -33.04989 150.14758 30230 ft 456 kts 309°
2026-05-07 21:11 -32.98087 150.06901 30243 ft 458 kts 309°
2026-05-07 21:12 -32.93473 150.01658 30265 ft 459 kts 309°
2026-05-07 21:12 -32.88855 149.96421 30267 ft 458 kts 309°
2026-05-07 21:13 -32.84238 149.91187 30264 ft 458 kts 310°
2026-05-07 21:13 -32.79623 149.85962 30261 ft 458 kts 310°
2026-05-07 21:14 -32.74996 149.80733 30270 ft 460 kts 310°
2026-05-07 21:14 -32.70357 149.75488 30276 ft 461 kts 310°
2026-05-07 21:15 -32.65706 149.70231 30288 ft 462 kts 310°
2026-05-07 21:15 -32.61043 149.64971 30278 ft 462 kts 310°
2026-05-07 21:16 -32.56404 149.59705 30259 ft 460 kts 308°
2026-05-07 21:16 -32.52301 149.53957 30285 ft 456 kts 304°
2026-05-07 21:17 -32.48337 149.48147 30304 ft 457 kts 304°
2026-05-07 21:17 -32.44314 149.42308 30299 ft 459 kts 304°
2026-05-07 21:18 -32.40264 149.36455 30303 ft 460 kts 304°
2026-05-07 21:18 -32.36207 149.30599 30309 ft 460 kts 304°
2026-05-07 21:19 -32.32144 149.24743 30322 ft 460 kts 304°
2026-05-07 21:19 -32.28084 149.18898 30315 ft 460 kts 304°
2026-05-07 21:20 -32.24028 149.13066 30310 ft 459 kts 304°
2026-05-07 21:20 -32.19972 149.07246 30307 ft 459 kts 304°
2026-05-07 21:21 -32.15909 149.01441 30303 ft 459 kts 305°
2026-05-07 21:21 -32.11840 148.95636 30314 ft 460 kts 305°
2026-05-07 21:22 -32.07669 148.89873 30317 ft 465 kts 310°
2026-05-07 21:22 -32.02724 148.84850 30318 ft 473 kts 319°
2026-05-07 21:23 -31.97221 148.80614 30327 ft 476 kts 322°
2026-05-07 21:23 -31.91655 148.76387 30327 ft 476 kts 322°
2026-05-07 21:24 -31.86108 148.72140 30332 ft 475 kts 322°
2026-05-07 21:24 -31.80570 148.67888 30329 ft 476 kts 322°
2026-05-07 21:25 -31.75021 148.63632 30333 ft 476 kts 322°
2026-05-07 21:25 -31.69471 148.59381 30336 ft 476 kts 322°
2026-05-07 21:26 -31.63919 148.55137 30339 ft 476 kts 322°
2026-05-07 21:26 -31.58363 148.50895 30335 ft 476 kts 322°
2026-05-07 21:27 -31.52813 148.46664 30320 ft 476 kts 322°
2026-05-07 21:27 -31.47255 148.42433 30338 ft 476 kts 322°
2026-05-07 21:28 -31.41693 148.38206 30338 ft 477 kts 322°
2026-05-07 21:28 -31.36122 148.33975 30340 ft 477 kts 322°
2026-05-07 21:29 -31.30550 148.29753 30338 ft 478 kts 323°
2026-05-07 21:29 -31.24958 148.25536 30335 ft 478 kts 323°
2026-05-07 21:30 -31.19374 148.21331 30334 ft 478 kts 323°
2026-05-07 21:30 -31.13782 148.17122 30335 ft 478 kts 323°
2026-05-07 21:31 -31.08185 148.12916 30341 ft 479 kts 323°
2026-05-07 21:31 -31.02582 148.08701 30341 ft 479 kts 323°
2026-05-07 21:32 -30.96981 148.04481 30339 ft 480 kts 323°
2026-05-07 21:32 -30.91374 148.00263 30340 ft 478 kts 323°
2026-05-07 21:33 -30.85796 147.96075 30341 ft 475 kts 323°
2026-05-07 21:33 -30.80246 147.91913 30345 ft 473 kts 323°
2026-05-07 21:34 -30.74719 147.87773 30350 ft 472 kts 323°
2026-05-07 21:34 -30.69191 147.83638 30350 ft 473 kts 323°
2026-05-07 21:35 -30.63655 147.79503 30322 ft 473 kts 323°
2026-05-07 21:35 -30.58124 147.75378 30344 ft 472 kts 322°
2026-05-07 21:36 -30.52647 147.71297 30401 ft 474 kts 322°
2026-05-07 21:36 -30.49870 147.69230 30862 ft 473 kts 322°
2026-05-07 21:36 -30.47112 147.67187 31569 ft 467 kts 322°
2026-05-07 21:37 -30.44392 147.65177 32243 ft 462 kts 322°
2026-05-07 21:37 -30.41669 147.63163 32351 ft 464 kts 322°
2026-05-07 21:37 -30.36252 147.59158 32348 ft 459 kts 322°
2026-05-07 21:38 -30.30892 147.55199 32355 ft 456 kts 322°
2026-05-07 21:38 -30.25534 147.51286 32360 ft 455 kts 323°
2026-05-07 21:39 -30.21052 147.48090 32365 ft 455 kts 323°
2026-05-07 21:39 -30.15656 147.44254 32364 ft 455 kts 323°
2026-05-07 21:40 -30.10268 147.40419 32364 ft 455 kts 323°
2026-05-07 21:40 -30.04871 147.36573 32360 ft 456 kts 323°
2026-05-07 21:41 -29.99469 147.32729 32363 ft 456 kts 323°
2026-05-07 21:41 -29.94063 147.28886 32367 ft 456 kts 323°
2026-05-07 21:42 -29.88654 147.25046 32370 ft 456 kts 323°
2026-05-07 21:42 -29.83251 147.21215 32372 ft 456 kts 323°
2026-05-07 21:43 -29.77843 147.17386 32372 ft 456 kts 323°
2026-05-07 21:43 -29.72436 147.13562 32359 ft 456 kts 323°
2026-05-07 21:44 -29.67032 147.09746 32369 ft 455 kts 323°
2026-05-07 21:44 -29.61637 147.05940 32378 ft 454 kts 324°
2026-05-07 21:45 -29.56282 147.02167 32380 ft 454 kts 324°
2026-05-07 21:45 -29.50893 146.98376 32379 ft 454 kts 324°
2026-05-07 21:46 -29.45501 146.94586 32384 ft 454 kts 324°
2026-05-07 21:46 -29.40109 146.90802 32378 ft 454 kts 324°
2026-05-07 21:47 -29.34725 146.87029 32377 ft 453 kts 324°
2026-05-07 21:47 -29.29355 146.83269 32379 ft 452 kts 324°
2026-05-07 21:48 -29.23980 146.79511 32386 ft 452 kts 324°
2026-05-07 21:48 -29.18606 146.75758 32384 ft 452 kts 324°
2026-05-07 21:49 -29.13232 146.72010 32390 ft 452 kts 324°
2026-05-07 21:49 -29.07863 146.68270 32376 ft 451 kts 324°
2026-05-07 21:50 -29.02505 146.64543 32380 ft 450 kts 324°
2026-05-07 21:50 -28.97153 146.60824 32381 ft 450 kts 324°
2026-05-07 21:51 -28.91807 146.57114 32380 ft 449 kts 324°
2026-05-07 21:51 -28.86509 146.53441 32384 ft 449 kts 324°
2026-05-07 21:52 -28.81127 146.49715 32380 ft 449 kts 324°
2026-05-07 21:52 -28.75824 146.46047 32390 ft 449 kts 324°
2026-05-07 21:53 -28.70475 146.42353 32381 ft 450 kts 324°
2026-05-07 21:53 -28.65122 146.38660 32397 ft 450 kts 324°
2026-05-07 21:54 -28.59755 146.34962 32395 ft 450 kts 324°
2026-05-07 21:54 -28.54398 146.31276 32390 ft 450 kts 324°
2026-05-07 21:55 -28.49036 146.27591 32386 ft 449 kts 324°
2026-05-07 21:55 -28.43698 146.23928 32386 ft 448 kts 324°
2026-05-07 21:56 -28.38371 146.20275 32387 ft 446 kts 324°
2026-05-07 21:56 -28.33059 146.16636 32392 ft 446 kts 324°
2026-05-07 21:57 -28.27753 146.13006 32389 ft 445 kts 324°
2026-05-07 21:57 -28.22439 146.09375 32390 ft 445 kts 324°
2026-05-07 21:58 -28.17172 146.05782 32383 ft 443 kts 323°
2026-05-07 21:58 -28.11891 146.02182 32384 ft 442 kts 323°
2026-05-07 21:59 -28.06626 145.98597 32391 ft 441 kts 323°
2026-05-07 21:59 -28.01365 145.95018 32396 ft 441 kts 323°
2026-05-07 22:00 -27.96099 145.91440 32394 ft 441 kts 323°
2026-05-07 22:00 -27.90831 145.87865 32363 ft 441 kts 323°
2026-05-07 22:01 -27.85577 145.84305 32384 ft 439 kts 323°
2026-05-07 22:01 -27.80342 145.80761 32388 ft 438 kts 323°
2026-05-07 22:02 -27.75125 145.77233 32397 ft 437 kts 323°
2026-05-07 22:02 -27.69917 145.73715 32385 ft 436 kts 323°
2026-05-07 22:03 -27.64708 145.70200 32393 ft 437 kts 323°
2026-05-07 22:03 -27.59492 145.66684 32371 ft 437 kts 324°
2026-05-07 22:04 -27.54273 145.63171 32384 ft 437 kts 324°
2026-05-07 22:04 -27.49049 145.59658 32389 ft 437 kts 324°
2026-05-07 22:05 -27.43822 145.56147 32387 ft 438 kts 324°
2026-05-07 22:05 -27.38623 145.52657 32389 ft 438 kts 324°
2026-05-07 22:06 -27.33360 145.49129 32387 ft 438 kts 324°
2026-05-07 22:06 -27.28123 145.45623 32378 ft 438 kts 324°
2026-05-07 22:07 -27.23090 145.41901 32396 ft 433 kts 319°
2026-05-07 22:07 -27.18236 145.37866 32396 ft 434 kts 319°
2026-05-07 22:08 -27.13362 145.33857 32377 ft 435 kts 319°
2026-05-07 22:08 -27.08478 145.29851 32388 ft 435 kts 319°
2026-05-07 22:09 -27.03594 145.25848 32387 ft 435 kts 319°
2026-05-07 22:09 -26.98705 145.21844 32387 ft 435 kts 319°
2026-05-07 22:10 -26.93821 145.17849 32383 ft 434 kts 319°
2026-05-07 22:10 -26.88950 145.13867 32382 ft 433 kts 319°
2026-05-07 22:11 -26.84085 145.09895 32382 ft 432 kts 319°
2026-05-07 22:11 -26.79232 145.05939 32380 ft 431 kts 319°
2026-05-07 22:12 -26.74377 145.01986 32387 ft 431 kts 319°
2026-05-07 22:12 -26.69554 144.98062 32387 ft 431 kts 319°
2026-05-07 22:13 -26.64699 144.94115 32368 ft 430 kts 319°
2026-05-07 22:13 -26.59864 144.90189 32379 ft 429 kts 319°
2026-05-07 22:14 -26.55038 144.86274 32381 ft 428 kts 319°
2026-05-07 22:14 -26.50224 144.82372 32384 ft 427 kts 319°
2026-05-07 22:15 -26.45421 144.78483 32383 ft 427 kts 319°
2026-05-07 22:15 -26.40610 144.74591 32386 ft 427 kts 319°
2026-05-07 22:16 -26.35792 144.70699 32377 ft 427 kts 319°
2026-05-07 22:16 -26.30979 144.66815 32373 ft 427 kts 319°
2026-05-07 22:17 -26.26168 144.62936 32377 ft 426 kts 319°
2026-05-07 22:17 -26.21365 144.59069 32373 ft 426 kts 319°
2026-05-07 22:18 -26.14204 144.53308 32373 ft 425 kts 319°
2026-05-07 22:19 -26.09410 144.49457 32376 ft 425 kts 319°
2026-05-07 22:19 -26.04613 144.45606 32374 ft 425 kts 319°
2026-05-07 22:20 -25.99807 144.41753 32340 ft 426 kts 319°
2026-05-07 22:20 -25.95011 144.37911 32359 ft 424 kts 319°
2026-05-07 22:21 -25.90227 144.34083 32363 ft 424 kts 319°
2026-05-07 22:21 -25.85440 144.30262 32368 ft 423 kts 319°
2026-05-07 22:22 -25.80654 144.26446 32365 ft 423 kts 319°
2026-05-07 22:22 -25.75871 144.22635 32368 ft 423 kts 320°
2026-05-07 22:23 -25.71892 144.19466 32362 ft 424 kts 320°
2026-05-07 22:23 -25.67095 144.15649 32363 ft 425 kts 320°